Location: Augirein
(42.9320°N, 0.9181°E)
Time: 15:16:59
(UTC+00:00)

USA 307 - Pass Details

Date: 20 June 2021
Orbit: 565 x 576 km, 54.0° (Epoch: 17 July)

Event Time Altitude Azimuth Distance (km) Brightness Sun altitude
Exits shadow 02:13:23 25° 255° (WSW) 1,177 4.1 -16.7°
Maximum altitude 02:15:43 58° 326° (NNW) 663 3.3 -16.4°
Drops below altitude 10° 02:19:54 10° 47° (NE) 1,867 6.8 -16.0°
Sets 02:22:11 0° 51° (NE) 2,766 7.9 -15.8°
